DW0268 Weather Reports


time (UTC)temp
C
wind
direction
speed
KPH
gust
KPH
rain 1hr
cm
rain 24hr
cm
rain mn
cm
humidity
%
barometer
mb
20260509031600 17 225 8.0 11.3 0.00 0.00 0.00 73 1012.5
20260509030059 17 240 8.0 12.9 0.00 0.00 0.00 74 1012.7
20260509024600 17 211 3.2 9.7 0.00 0.00 0.00 73 1012.4
20260509023104 18 200 8.0 12.9 0.00 0.00 0.00 70 1012.0
20260509021557 18 184 9.7 14.5 0.00 0.00 0.00 70 1011.6
20260509020059 17 198 9.7 12.9 0.00 0.00 0.00 71 1011.7
20260509014554 18 202 6.4 16.1 0.00 0.00 0.00 68 1011.7
20260509013059 18 213 9.7 12.9 0.00 0.00 0.00 66 1011.8
20260509011552 19 209 9.7 14.5 0.00 0.00 0.00 63 1011.6
20260509010050 20 210 12.9 27.4 0.00 0.00 0.00 60 1011.8
20260509004551 21 211 16.1 27.4 0.00 0.00 0.00 58 1011.7
20260509003057 21 215 17.7 29.0 0.00 0.00 0.00 58 1012.1
20260509001545 22 204 19.3 32.2 0.00 0.00 0.00 55 1012.2
20260509000047 22 211 20.9 27.4 0.00 0.00 0.00 53 1012.3
20260508234544 22 210 19.3 29.0 0.00 0.00 0.00 52 1012.5
20260508233043 23 197 19.3 27.4 0.00 0.00 0.00 49 1012.4
20260508231542 23 212 19.3 27.4 0.00 0.00 0.00 49 1012.2
20260508230043 23 203 17.7 27.4 0.00 0.00 0.00 48 1012.3
20260508224538 23 190 17.7 29.0 0.00 0.00 0.00 46 1012.3
20260508223040 23 213 19.3 33.8 0.00 0.00 0.00 49 1012.5
20260508221536 23 216 17.7 25.7 0.00 0.00 0.00 48 1012.7
20260508220033 23 195 19.3 32.2 0.00 0.00 0.00 47 1012.7
20260508214532 23 221 16.1 29.0 0.00 0.00 0.00 47 1012.7
20260508213029 23 212 17.7 24.1 0.00 0.00 0.00 47 1012.9
20260508211528 23 212 16.1 25.7 0.00 0.00 0.00 49 1013.1
20260508210024 23 188 17.7 30.6 0.00 0.00 0.00 49 1013.3
20260508204522 23 161 14.5 29.0 0.00 0.00 0.00 50 1013.2
20260508203021 23 213 14.5 25.7 0.00 0.00 0.00 51 1013.3
20260508201524 23 211 19.3 29.0 0.00 0.00 0.00 52 1013.7
20260508200021 23 174 17.7 24.1 0.00 0.00 0.00 55 1013.8
20260508194515 22 181 17.7 32.2 0.00 0.00 0.00 54 1014.1
20260508193017 22 205 19.3 30.6 0.00 0.00 0.00 53 1014.2
20260508191515 22 184 14.5 30.6 0.00 0.00 0.00 57 1014.4
20260508190008 22 200 17.7 40.2 0.00 0.00 0.00 56 1014.8
20260508184507 22 194 16.1 32.2 0.00 0.00 0.00 58 1015.3
20260508183001 22 235 20.9 35.4 0.00 0.00 0.00 57 1015.6
20260508181632 22 186 17.7 29.0 0.00 0.00 0.00 60 1015.8
20260508174601 21 214 17.7 30.6 0.00 0.00 0.00 61 1016.3
20260508173051 21 198 20.9 32.2 0.00 0.00 0.00 63 1016.5
20260508171549 21 210 17.7 29.0 0.00 0.00 0.00 63 1016.8
20260508170045 20 205 20.9 35.4 0.00 0.00 0.00 61 1017.0
20260508164543 20 180 17.7 32.2 0.00 0.00 0.00 63 1017.2
20260508163042 20 186 19.3 33.8 0.00 0.00 0.00 64 1017.4
20260508161538 20 196 25.7 35.4 0.00 0.00 0.00 63 1017.5
20260508160034 20 209 16.1 25.7 0.00 0.00 0.00 68 1017.6
20260508154532 19 170 16.1 24.1 0.00 0.00 0.00 68 1017.7
20260508153040 18 194 19.3 27.4 0.00 0.00 0.00 69 1018.0
20260508151529 18 188 16.1 27.4 0.00 0.00 0.00 71 1018.2
20260508150022 17 203 14.5 24.1 0.00 0.00 0.00 73 1018.4
20260508144519 17 179 11.3 24.1 0.00 0.00 0.00 76 1018.7
20260508143022 16 190 12.9 20.9 0.00 0.00 0.00 77 1018.7
20260508141513 16 190 14.5 22.5 0.00 0.00 0.00 77 1018.8
20260508140010 15 188 12.9 22.5 0.00 0.00 0.00 79 1019.1
20260508134507 15 188 12.9 22.5 0.00 0.00 0.00 80 1019.0
20260508133007 14 180 11.3 16.1 0.00 0.00 0.00 81 1019.2
20260508131502 13 178 11.3 16.1 0.00 0.00 0.00 84 1019.2
20260508130058 13 185 11.3 16.1 0.00 0.00 0.00 85 1019.1
20260508124553 12 178 9.7 14.5 0.00 0.00 0.00 86 1019.1
20260508123056 12 197 11.3 16.1 0.00 0.00 0.00 87 1019.1
20260508121554 11 212 4.8 12.9 0.00 0.00 0.00 89 1019.0
20260508120052 11 209 6.4 12.9 0.00 0.00 0.00 88 1018.8
20260508114548 10 186 6.4 9.7 0.00 0.00 0.00 88 1018.6
20260508113050 10 197 6.4 9.7 0.00 0.00 0.00 89 1018.6
20260508111548 10 173 4.8 6.4 0.00 0.00 0.00 88 1018.1
20260508110047 10 171 1.6 6.4 0.00 0.00 0.00 88 1017.7
20260508104541 10 167 3.2 8.0 0.00 0.00 0.00 86 1017.7
20260508103041 10 167 4.8 6.4 0.00 0.00 0.00 85 1017.7
20260508101539 10 177 3.2 8.0 0.00 0.00 0.00 85 1017.8
20260508100037 10 182 3.2 6.4 0.00 0.00 0.00 86 1017.8
20260508094538 10 198 4.8 8.0 0.00 0.00 0.00 86 1018.0
20260508093035 10 201 4.8 8.0 0.00 0.00 0.00 86 1017.9
20260508091533 10 197 4.8 8.0 0.00 0.00 0.00 86 1018.0
20260508090034 11 175 1.6 4.8 0.00 0.00 0.00 85 1017.9
20260508084530 11 175 3.2 6.4 0.00 0.00 0.00 84 1018.1
20260508083029 11 175 4.8 8.0 0.00 0.00 0.00 84 1018.1
20260508081533 11 171 0.0 4.8 0.00 0.00 0.00 85 1018.2
20260508080026 11 171 1.6 6.4 0.00 0.00 0.00 85 1018.5
20260508074524 11 192 1.6 8.0 0.00 0.00 0.00 83 1018.5
20260508073024 11 187 4.8 8.0 0.00 0.00 0.00 84 1018.6
20260508071528 11 181 4.8 6.4 0.00 0.00 0.00 84 1018.8
20260508070020 11 180 4.8 6.4 0.00 0.00 0.00 85 1019.0
20260508064521 11 180 3.2 6.4 0.00 0.00 0.00 85 1018.9
20260508063019 11 174 6.4 8.0 0.00 0.00 0.00 84 1019.0
20260508061521 12 172 3.2 6.4 0.00 0.00 0.00 82 1019.0
20260508060015 12 172 1.6 4.8 0.00 0.00 0.00 82 1019.1
20260508054516 12 172 1.6 4.8 0.00 0.00 0.00 82 1018.9
20260508053011 12 169 1.6 4.8 0.00 0.00 0.00 82 1019.0
20260508051517 12 168 1.6 4.8 0.00 0.00 0.00 83 1019.1
20260508050010 12 173 1.6 6.4 0.00 0.00 0.00 82 1018.9
20260508044505 12 167 1.6 4.8 0.00 0.00 0.00 81 1019.0
20260508043004 12 155 1.6 4.8 0.00 0.00 0.00 80 1019.1
20260508041503 12 150 4.8 8.0 0.00 0.00 0.00 80 1018.9
20260508040008 12 156 3.2 4.8 0.00 0.00 0.00 80 1018.8
20260508034502 13 162 4.8 8.0 0.00 0.00 0.00 80 1019.0
20260508033004 13 148 3.2 6.4 0.00 0.00 0.00 80 1019.2